| time (UTC) | temp F | wind direction | speed MPH | gust MPH | rain 1hr in | rain 24hr in | rain mn in | humidity % | barometer mb |
| 20260904163516 | 92 | 0.0 | 3.0 | 0.00 | 0.00 | 0.00 | 63 | 1017.5 | |
| 20260904162516 | 93 | 0.0 | 2.0 | 0.00 | 0.00 | 0.00 | 63 | 1017.4 | |
| 20260904161516 | 92 | 270 | 1.0 | 19.0 | 0.00 | 0.00 | 0.00 | 64 | 1017.6 |
| 20260904160536 | 90 | 270 | 1.0 | 11.0 | 0.00 | 0.00 | 0.00 | 65 | 1017.4 |
| 20260904155516 | 91 | 0.0 | 2.0 | 0.00 | 0.00 | 0.00 | 67 | 1017.6 | |
| 20260904154516 | 89 | 270 | 1.0 | 5.0 | 0.00 | 0.00 | 0.00 | 68 | 1017.4 |
| 20260904153516 | 89 | 225 | 1.0 | 8.0 | 0.00 | 0.00 | 0.00 | 67 | 1017.5 |
| 20260904152516 | 89 | 0.0 | 3.0 | 0.00 | 0.00 | 0.00 | 70 | 1017.5 | |
| 20260904151516 | 89 | 248 | 2.0 | 6.0 | 0.00 | 0.00 | 0.00 | 69 | 1017.6 |
| 20260904150557 | 89 | 315 | 1.0 | 5.0 | 0.00 | 0.00 | 0.00 | 68 | 1017.5 |
| 20260904145536 | 88 | 248 | 1.0 | 4.0 | 0.00 | 0.00 | 0.00 | 71 | 1017.4 |
| 20260904144517 | 87 | 0.0 | 0.0 | 0.00 | 0.00 | 0.00 | 71 | 1017.3 | |
| 20260904143516 | 86 | 0.0 | 4.0 | 0.00 | 0.00 | 0.00 | 72 | 1017.3 | |
| 20260904142556 | 86 | 248 | 1.0 | 8.0 | 0.00 | 0.00 | 0.00 | 72 | 1017.3 |
| 20260904141557 | 86 | 0.0 | 0.0 | 0.00 | 0.00 | 0.00 | 74 | 1017.2 | |
| 20260904140516 | 84 | 0.0 | 5.0 | 0.00 | 0.00 | 0.00 | 76 | 1017.1 | |
| 20260904135516 | 83 | 0.0 | 1.0 | 0.00 | 0.00 | 0.00 | 77 | 1016.9 | |
| 20260904134516 | 83 | 0.0 | 5.0 | 0.00 | 0.00 | 0.00 | 79 | 1016.8 | |
| 20260904133516 | 82 | 293 | 1.0 | 5.0 | 0.00 | 0.00 | 0.00 | 78 | 1017.0 |
| 20260904132516 | 82 | 0.0 | 2.0 | 0.00 | 0.00 | 0.00 | 80 | 1017.0 | |
| 20260904131516 | 81 | 0.0 | 0.0 | 0.00 | 0.00 | 0.00 | 81 | 1017.1 | |
| 20260904130516 | 80 | 0.0 | 0.0 | 0.00 | 0.00 | 0.00 | 83 | 1017.1 | |
| 20260904125516 | 78 | 0.0 | 0.0 | 0.00 | 0.00 | 0.00 | 84 | 1017.0 | |
| 20260904124516 | 77 | 0.0 | 0.0 | 0.00 | 0.00 | 0.00 | 86 | 1017.0 | |
| 20260904123516 | 77 | 0.0 | 0.0 | 0.00 | 0.00 | 0.00 | 85 | 1016.8 | |
| 20260904122516 | 77 | 0.0 | 0.0 | 0.00 | 0.00 | 0.00 | 86 | 1016.6 | |
| 20260904121516 | 77 | 0.0 | 0.0 | 0.00 | 0.00 | 0.00 | 85 | 1016.5 | |
| 20260904120516 | 77 | 0.0 | 3.0 | 0.00 | 0.00 | 0.00 | 85 | 1016.4 | |
| 20260904115516 | 76 | 0.0 | 0.0 | 0.00 | 0.00 | 0.00 | 85 | 1016.2 | |
| 20260904114516 | 76 | 0.0 | 0.0 | 0.00 | 0.00 | 0.00 | 85 | 1016.1 | |
| 20260904113516 | 76 | 0.0 | 0.0 | 0.00 | 0.00 | 0.00 | 85 | 1016.0 | |
| 20260904112517 | 76 | 0.0 | 0.0 | 0.00 | 0.00 | 0.00 | 85 | 1016.0 | |
| 20260904111536 | 76 | 0.0 | 0.0 | 0.00 | 0.00 | 0.00 | 85 | 1016.0 | |
| 20260904110536 | 76 | 0.0 | 0.0 | 0.00 | 0.00 | 0.00 | 85 | 1016.0 | |
| 20260904104516 | 77 | 0.0 | 0.0 | 0.00 | 0.00 | 0.00 | 85 | 1016.1 | |
| 20260904103516 | 77 | 0.0 | 0.0 | 0.00 | 0.00 | 0.00 | 85 | 1016.1 | |
| 20260904102516 | 77 | 0.0 | 0.0 | 0.00 | 0.00 | 0.00 | 86 | 1016.0 | |
| 20260904101516 | 77 | 0.0 | 1.0 | 0.00 | 0.00 | 0.00 | 86 | 1016.1 | |
| 20260904100516 | 77 | 0.0 | 0.0 | 0.00 | 0.00 | 0.00 | 86 | 1016.1 | |
| 20260904095516 | 77 | 0.0 | 0.0 | 0.00 | 0.00 | 0.00 | 86 | 1016.1 | |
| 20260904094516 | 77 | 0.0 | 0.0 | 0.00 | 0.00 | 0.00 | 86 | 1016.1 | |
| 20260904093516 | 77 | 0.0 | 0.0 | 0.00 | 0.00 | 0.00 | 85 | 1016.1 | |
| 20260904092516 | 78 | 0.0 | 0.0 | 0.00 | 0.00 | 0.00 | 85 | 1016.1 | |
| 20260904091516 | 78 | 0.0 | 0.0 | 0.00 | 0.00 | 0.00 | 85 | 1016.0 | |
| 20260904090556 | 78 | 0.0 | 0.0 | 0.00 | 0.00 | 0.00 | 84 | 1016.0 | |
| 20260904085517 | 78 | 0.0 | 2.0 | 0.00 | 0.00 | 0.00 | 84 | 1015.8 | |
| 20260904084536 | 78 | 0.0 | 1.0 | 0.00 | 0.00 | 0.00 | 84 | 1015.8 | |
| 20260904083536 | 78 | 0.0 | 1.0 | 0.00 | 0.00 | 0.00 | 84 | 1015.9 | |
| 20260904082516 | 78 | 0.0 | 0.0 | 0.00 | 0.00 | 0.00 | 83 | 1016.0 | |
| 20260904081516 | 78 | 0.0 | 0.0 | 0.00 | 0.00 | 0.00 | 84 | 1015.9 | |
| 20260904080516 | 78 | 0.0 | 0.0 | 0.00 | 0.00 | 0.00 | 84 | 1016.0 | |
| 20260904075516 | 79 | 0.0 | 0.0 | 0.00 | 0.00 | 0.00 | 83 | 1016.0 | |
| 20260904074536 | 79 | 0.0 | 0.0 | 0.00 | 0.00 | 0.00 | 83 | 1016.1 | |
| 20260904072517 | 79 | 0.0 | 0.0 | 0.00 | 0.00 | 0.00 | 83 | 1016.2 | |
| 20260904071516 | 79 | 0.0 | 0.0 | 0.00 | 0.00 | 0.00 | 84 | 1016.2 | |
| 20260904070517 | 79 | 0.0 | 0.0 | 0.00 | 0.00 | 0.00 | 84 | 1016.2 | |
| 20260904065516 | 79 | 0.0 | 0.0 | 0.00 | 0.00 | 0.00 | 85 | 1016.2 | |
| 20260904064556 | 79 | 0.0 | 0.0 | 0.00 | 0.00 | 0.00 | 85 | 1016.3 | |
| 20260904063516 | 78 | 0.0 | 0.0 | 0.00 | 0.00 | 0.00 | 85 | 1016.4 | |
| 20260904062516 | 79 | 0.0 | 0.0 | 0.00 | 0.00 | 0.00 | 85 | 1016.4 | |
| 20260904061516 | 79 | 0.0 | 0.0 | 0.00 | 0.00 | 0.00 | 85 | 1016.4 | |
| 20260904060516 | 79 | 0.0 | 0.0 | 0.00 | 0.00 | 0.00 | 84 | 1016.5 | |
| 20260904055516 | 79 | 0.0 | 0.0 | 0.00 | 0.00 | 0.00 | 83 | 1016.5 | |
| 20260904054516 | 80 | 0.0 | 0.0 | 0.00 | 0.00 | 0.00 | 83 | 1016.5 | |
| 20260904053537 | 80 | 0.0 | 0.0 | 0.00 | 0.00 | 0.00 | 83 | 1016.4 | |
| 20260904052516 | 80 | 0.0 | 0.0 | 0.00 | 0.00 | 0.00 | 82 | 1016.4 | |
| 20260904051517 | 80 | 0.0 | 0.0 | 0.00 | 0.00 | 0.00 | 82 | 1016.4 | |
| 20260904050517 | 80 | 0.0 | 0.0 | 0.00 | 0.00 | 0.00 | 82 | 1016.3 | |
| 20260904045516 | 80 | 0.0 | 0.0 | 0.00 | 0.00 | 0.00 | 82 | 1016.3 | |
| 20260904044516 | 80 | 0.0 | 0.0 | 0.00 | 0.00 | 0.00 | 82 | 1016.2 | |
| 20260904043516 | 80 | 0.0 | 0.0 | 0.00 | 0.00 | 0.00 | 82 | 1016.2 | |
| 20260904042516 | 80 | 0.0 | 0.0 | 0.00 | 0.00 | 0.00 | 82 | 1016.2 | |
| 20260904041516 | 80 | 0.0 | 0.0 | 0.00 | 0.00 | 0.00 | 82 | 1016.1 | |
| 20260904040517 | 80 | 0.0 | 0.0 | 0.00 | 0.00 | 0.00 | 84 | 1016.1 | |
| 20260904035516 | 80 | 0.0 | 0.0 | 0.00 | 0.00 | 0.00 | 83 | 1016.1 | |
| 20260904034536 | 80 | 0.0 | 0.0 | 0.00 | 0.00 | 0.00 | 84 | 1016.0 | |
| 20260904033516 | 80 | 0.0 | 0.0 | 0.00 | 0.00 | 0.00 | 85 | 1016.0 | |
| 20260904032516 | 80 | 0.0 | 0.0 | 0.00 | 0.00 | 0.00 | 85 | 1016.1 | |
| 20260904031537 | 81 | 0.0 | 0.0 | 0.00 | 0.00 | 0.00 | 85 | 1016.1 | |
| 20260904030536 | 81 | 0.0 | 0.0 | 0.00 | 0.00 | 0.00 | 85 | 1016.2 | |
| 20260904025537 | 81 | 0.0 | 0.0 | 0.00 | 0.00 | 0.00 | 84 | 1016.3 | |
| 20260904024516 | 81 | 0.0 | 0.0 | 0.00 | 0.00 | 0.00 | 83 | 1016.3 | |
| 20260904023536 | 81 | 0.0 | 0.0 | 0.00 | 0.00 | 0.00 | 83 | 1016.3 | |
| 20260904022516 | 82 | 0.0 | 0.0 | 0.00 | 0.00 | 0.00 | 82 | 1016.2 | |
| 20260904021536 | 82 | 0.0 | 0.0 | 0.00 | 0.00 | 0.00 | 81 | 1016.2 | |
| 20260904020516 | 82 | 0.0 | 0.0 | 0.00 | 0.00 | 0.00 | 81 | 1016.1 | |
| 20260904015516 | 82 | 0.0 | 0.0 | 0.00 | 0.00 | 0.00 | 80 | 1016.0 | |
| 20260904014517 | 82 | 0.0 | 0.0 | 0.00 | 0.00 | 0.00 | 80 | 1016.0 | |
| 20260904013537 | 82 | 0.0 | 0.0 | 0.00 | 0.00 | 0.00 | 79 | 1015.9 | |
| 20260904012516 | 82 | 0.0 | 0.0 | 0.00 | 0.00 | 0.00 | 78 | 1015.7 | |
| 20260904011516 | 82 | 0.0 | 0.0 | 0.00 | 0.00 | 0.00 | 78 | 1015.6 | |
| 20260904010517 | 82 | 0.0 | 0.0 | 0.00 | 0.00 | 0.00 | 78 | 1015.5 | |
| 20260904005556 | 83 | 0.0 | 0.0 | 0.00 | 0.00 | 0.00 | 78 | 1015.5 | |
| 20260904004516 | 83 | 0.0 | 0.0 | 0.00 | 0.00 | 0.00 | 77 | 1015.5 | |
| 20260904003516 | 83 | 0.0 | 0.0 | 0.00 | 0.00 | 0.00 | 76 | 1015.3 | |
| 20260904002516 | 83 | 0.0 | 0.0 | 0.00 | 0.00 | 0.00 | 78 | 1015.1 | |
| 20260904001516 | 84 | 0.0 | 0.0 | 0.00 | 0.00 | 0.00 | 77 | 1015.1 | |
| 20260904000517 | 84 | 0.0 | 0.0 | 0.00 | 0.00 | 0.00 | 76 | 1015.0 | |
| 20260903235516 | 85 | 0.0 | 0.0 | 0.00 | 0.00 | 0.00 | 76 | 1015.1 | |
| 20260903234516 | 86 | 0.0 | 0.0 | 0.00 | 0.00 | 0.00 | 74 | 1015.0 | |
| 20260903233516 | 87 | 0.0 | 0.0 | 0.00 | 0.00 | 0.00 | 74 | 1015.1 | |
| 20260903232516 | 88 | 0.0 | 0.0 | 0.00 | 0.00 | 0.00 | 73 | 1015.1 | |
| 20260903231516 | 90 | 0.0 | 0.0 | 0.00 | 0.00 | 0.00 | 70 | 1015.1 | |
| 20260903230516 | 92 | 0.0 | 0.0 | 0.00 | 0.00 | 0.00 | 67 | 1015.1 | |
| 20260903225517 | 94 | 0.0 | 0.0 | 0.00 | 0.00 | 0.00 | 62 | 1015.1 | |
| 20260903224516 | 95 | 0.0 | 0.0 | 0.00 | 0.00 | 0.00 | 61 | 1015.2 | |
| 20260903223556 | 94 | 0.0 | 0.0 | 0.00 | 0.00 | 0.00 | 61 | 1015.2 | |
| 20260903222516 | 94 | 0.0 | 2.0 | 0.00 | 0.00 | 0.00 | 58 | 1015.1 | |
| 20260903221536 | 94 | 0.0 | 0.0 | 0.00 | 0.00 | 0.00 | 61 | 1015.1 | |
| 20260903220517 | 95 | 0.0 | 2.0 | 0.00 | 0.00 | 0.00 | 58 | 1015.1 | |
| 20260903215517 | 95 | 0.0 | 2.0 | 0.00 | 0.00 | 0.00 | 55 | 1015.2 | |
| 20260903214536 | 96 | 0.0 | 1.0 | 0.00 | 0.00 | 0.00 | 54 | 1015.2 | |
| 20260903213516 | 95 | 0.0 | 2.0 | 0.00 | 0.00 | 0.00 | 54 | 1015.1 | |
| 20260903212516 | 95 | 0.0 | 3.0 | 0.00 | 0.00 | 0.00 | 55 | 1015.3 | |
| 20260903211536 | 95 | 0.0 | 2.0 | 0.00 | 0.00 | 0.00 | 58 | 1015.3 | |
| 20260903210516 | 95 | 0.0 | 5.0 | 0.00 | 0.00 | 0.00 | 55 | 1015.4 | |
| 20260903205516 | 95 | 0.0 | 5.0 | 0.00 | 0.00 | 0.00 | 55 | 1015.6 | |
| 20260903204516 | 95 | 180 | 1.0 | 6.0 | 0.00 | 0.00 | 0.00 | 54 | 1015.6 |
| 20260903203516 | 95 | 293 | 2.0 | 8.0 | 0.00 | 0.00 | 0.00 | 53 | 1015.7 |
| 20260903202516 | 96 | 225 | 1.0 | 6.0 | 0.00 | 0.00 | 0.00 | 53 | 1015.8 |
| 20260903201516 | 97 | 0.0 | 2.0 | 0.00 | 0.00 | 0.00 | 52 | 1015.9 | |
| 20260903200537 | 96 | 0.0 | 3.0 | 0.00 | 0.00 | 0.00 | 54 | 1016.0 | |
| 20260903195516 | 95 | 225 | 1.0 | 7.0 | 0.00 | 0.00 | 0.00 | 56 | 1016.2 |
| 20260903194517 | 96 | 248 | 1.0 | 5.0 | 0.00 | 0.00 | 0.00 | 52 | 1016.2 |
| 20260903193516 | 96 | 0.0 | 4.0 | 0.00 | 0.00 | 0.00 | 54 | 1016.3 | |
| 20260903192516 | 96 | 0.0 | 4.0 | 0.00 | 0.00 | 0.00 | 53 | 1016.4 | |
| 20260903191517 | 95 | 315 | 1.0 | 4.0 | 0.00 | 0.00 | 0.00 | 53 | 1016.6 |
| 20260903190516 | 94 | 248 | 1.0 | 6.0 | 0.00 | 0.00 | 0.00 | 54 | 1016.6 |
| 20260903185517 | 95 | 293 | 2.0 | 6.0 | 0.00 | 0.00 | 0.00 | 54 | 1016.6 |
| 20260903184516 | 94 | 338 | 3.0 | 10.0 | 0.00 | 0.00 | 0.00 | 56 | 1016.7 |
| 20260903183516 | 94 | 293 | 1.0 | 9.0 | 0.00 | 0.00 | 0.00 | 53 | 1016.8 |
| 20260903182516 | 94 | 248 | 2.0 | 9.0 | 0.00 | 0.00 | 0.00 | 57 | 1016.8 |
| 20260903181516 | 94 | 248 | 1.0 | 10.0 | 0.00 | 0.00 | 0.00 | 57 | 1016.8 |
| 20260903180516 | 93 | 270 | 2.0 | 7.0 | 0.00 | 0.00 | 0.00 | 55 | 1016.8 |
| 20260903175517 | 93 | 0.0 | 3.0 | 0.00 | 0.00 | 0.00 | 58 | 1016.9 | |
| 20260903174536 | 93 | 248 | 2.0 | 7.0 | 0.00 | 0.00 | 0.00 | 56 | 1017.1 |
| 20260903173517 | 93 | 180 | 1.0 | 8.0 | 0.00 | 0.00 | 0.00 | 62 | 1017.1 |
| 20260903172516 | 92 | 203 | 2.0 | 7.0 | 0.00 | 0.00 | 0.00 | 60 | 1017.2 |
| 20260903171516 | 92 | 0.0 | 3.0 | 0.00 | 0.00 | 0.00 | 62 | 1017.2 | |
| 20260903170516 | 92 | 0.0 | 3.0 | 0.00 | 0.00 | 0.00 | 63 | 1017.3 | |
| 20260903165536 | 91 | 0.0 | 3.0 | 0.00 | 0.00 | 0.00 | 63 | 1017.5 | |
| 20260903164536 | 91 | 203 | 1.0 | 8.0 | 0.00 | 0.00 | 0.00 | 64 | 1017.5 |